User: anonymous   Login
Location: Unspecified
(0.0000°N, 0.0000°E)
Time: 18:36:21
(UTC+00:00)
Language:

XMM - Orbit

View from above orbital plane
View from above orbital plane
View from above satellite
View from above satellite

Ground track
Ground track

The orbit data is extracted from the following two-line orbital elements,

1 25989U 99066A   19079.84135958  .00000039  00000-0  00000+0 0  9993
2 25989  70.8414 335.5609 7718194  95.3045   0.1006  0.50139868 24107
Epoch (UTC): 20 March 2019 20:11:33
Eccentricity: 0.7718194
inclination: 70.8414°
perigee height: 8893 km
apogee height: 112206 km
right ascension of ascending node: 335.5609°
argument of perigee: 95.3045°
revolutions per day: 0.50139868
mean anomaly at epoch: 0.1006°
orbit number at epoch: 2410

The dashed part of the orbit path shows where the satellite is in the earth's shadow,  

DLR